Location: Cul de Sac
(18.0387°N, 63.0654°W)
Time: 17:31:21
(UTC+00:00)

Cosmos 2082 - Pass Details

Date: 29 October 2020
Orbit: 832 x 857 km, 71.0° (Epoch: 28 November)

Event Time Altitude Azimuth Distance (km) Brightness Sun altitude
Rises 23:25:03 0° 347° (NNW) 3,422 6.9 -25.1°
Reaches altitude 10° 23:27:32 10° 349° (N) 2,485 6.2 -25.7°
Enters shadow 23:31:47 49° 10° (N) 1,084 4.1 -26.7°
